Tracking 35055 objects as of 18-Aug-2026
HD Live streaming from Space Station
objects crossing your sky now

COSMOS 410


COSMOS 410 is no longer on orbit


NORAD ID: 5207
Int'l Code: 1971-040A
Launch date: May 6, 1971
Source: Commonwealth of Independent States (former USSR) (CIS)
Launch site: TYURATAM MISSILE AND SPACE COMPLEX (TTMTR)
Decay date: 1971-05-18
Your satellite tracking list
Your tracking list is empty




NASA's NSSDC Master Catalog

Two Line Element Set (TLE):
1 05207U 71040  A 71137.53979985  .00181330 +00000-0 +00000-0 0  9996
2 05207 064.9666 312.6597 0052609 035.9355 324.5288 16.15342712001823
Source of the keplerian elements: AFSPC